Hourly Data Report for October 09, 2013

All times are specified in Local Standard Time (LST). Add 1 hour to adjust for Daylight Saving Time where and when it is observed.

FREDERICTON
NEW BRUNSWICK

45°52'08.000" N
66°32'14.000" W
20.70 m
8101505
71700
YFC

Download Data

Hourly Data (October 2013)
Hourly Data Report for October 9, 2013
Temp Definition
°C
Dew Point Temp Definition
°C
Rel Hum Definition
%
Wind Dir Definition
10's deg

Wind Spd Definition
km/h
Visibility Definition
km
Stn Press Definition
kPa
Hmdx Definition


Wind Chill Definition


Weather Definition


TIME
00:00 Legend Double Dagger 2.3 1.4 94 19 8 16.1 102.50     LegendNANA
01:00 Legend Double Dagger 1.7 1.0 95 17 4 16.1 102.55     LegendNANA
02:00 Legend Double Dagger 2.4 1.5 94 20 8 16.1 102.58     LegendNANA
03:00 Legend Double Dagger 2.1 1.5 96 23 4 16.1 102.59     LegendNANA
04:00 Legend Double Dagger 0.7 0.6 99 22 5 16.1 102.67     LegendNANA
05:00 Legend Double Dagger 0.6 0.3 98 24 5 16.1 102.72     LegendNANA
06:00 Legend Double Dagger 0.4 0.3 99 23 8 16.1 102.77     LegendNANA
07:00 Legend Double Dagger -0.7 -1.0 98 19 9 16.1 102.83   -4 LegendNANA
08:00 Legend Double Dagger 2.6 1.7 94 20 4 16.1 102.90     LegendNANA
09:00 Legend Double Dagger 6.6 3.7 81 LegendMM 4 16.1 102.87     LegendNANA
10:00 Legend Double Dagger 11.6 4.6 62 34 11 16.1 102.85     LegendNANA
11:00 Legend Double Dagger 14.3 3.6 48 32 13 16.1 102.79     LegendNANA
12:00 Legend Double Dagger 15.5 4.1 46 34 11 16.1 102.75     LegendNANA
13:00 Legend Double Dagger 16.1 3.5 43 LegendMM 5 16.1 102.67     LegendNANA
14:00 Legend Double Dagger 17.0 3.0 39 30 5 16.1 102.60     LegendNANA
15:00 Legend Double Dagger 17.5 1.9 35 24 8 16.1 102.56     LegendNANA
16:00 Legend Double Dagger 17.5 2.3 36 23 11 16.1 102.51     LegendNANA
17:00 Legend Double Dagger 16.4 4.3 44 25 5 16.1 102.48     LegendNANA
18:00 Legend Double Dagger 12.7 5.7 62   0 16.1 102.47     LegendNANA
19:00 Legend Double Dagger 10.5 5.9 73 23 9 16.1 102.47     LegendNANA
20:00 Legend Double Dagger 7.8 5.1 83 18 9 16.1 102.45     LegendNANA
21:00 Legend Double Dagger 7.0 5.3 89 20 11 16.1 102.49     LegendNANA
22:00 Legend Double Dagger 7.7 5.5 86 20 17 16.1 102.45     LegendNANA
23:00 Legend Double Dagger 6.7 5.0 89 19 13 16.1 102.44     LegendNANA

Notes on Data Quality.

Legend

  • E = Estimated
  • M = Missing
  • NA = Not Available
  • ‡ = Partner data that is not subject to review by the National Climate Archives
Date modified: